カタログに戻る

COSMOS 2251 DEB

運用中LEO
NORAD 34061·DEBRIS·🇷🇺 Russia

打ち上げ Jun 16, 1993 から Plesetsk Cosmodrome

Loading…

次のパス (今後24時間)

TLE

最新Source: Space-Track

元期: Sep 14, 2026, 07:06 UTC

1 34061U 93036JY  26257.29607845  .00000484  00000-0  15896-3 0  9996
2 34061  74.0376 113.8129 0019861 128.9284 354.3569 14.40825179921487

AllMySatでCOSMOS 2251 DEBをリアルタイム追跡

Download on the App Store